Flag Weather past 2 weeks in Dillenburg, Hesse, Germany

Now
46 °F

Cool.


Feels Like: 42 °F
Forecast: 36 / 47 °F
Wind: 9 mph from Southeast

Location: Hessen

Current Time: Nov 23, 2014 at 1:42:34 PM

Latest Report: Nov 23, 2014 at 12:50 PM


Visibility: N/A

Pressure: 30.12 "Hg

Humidity: 100%

Dew point: 46 °F

Location of DillenburgLocation

Historic Weather in Dillenburg — Graph

°F

Dillenburg temperature yesterday

Maximum temperature yesterday: 43 °F (at 11:20 AM)
Minimum temperature yesterday: 32 °F (at 6:50 AM)
Average temperature yesterday: 39 °F

Past Weeks' High & Low Weather Summary

 TemperatureHumidityPressure
High55 °F (Nov 12, 11:20 AM)100% (Nov 9, 7:20 AM)30.27 "Hg (Nov 9, 7:20 AM)
Low32 °F (Nov 22, 6:50 AM)72% (Nov 12, 11:20 AM)29.50 "Hg (Nov 16, 7:50 AM)
Average43 °F98%29.87 "Hg
* Reported Nov 8 12:20 PM — Nov 23 12:50 PM, Dillenburg, Weather by CustomWeather, © 2014

Note: Actual official high and low records may vary slightly from our data, if they occured in-between our weather recording intervals... More about our weather records

Advertising

Dillenburg weather history for previous 24 hours

 ConditionsComfort  
Time TempWeatherWind HumidityBarometerVisibility
12:50 PM
Nov 23
46 °FCool.9 mph100%30.12 "HgN/A
12:20 PM41 °FQuite cool.9 mph100%30.12 "Hg6 mi
11:50 AM43 °FQuite cool.9 mph100%30.12 "HgN/A
11:20 AM39 °FFog.10 mph100%30.12 "Hg0 mi
10:50 AM39 °FFog.8 mph100%30.15 "Hg0 mi
10:20 AM39 °FFog.7 mph100%30.15 "Hg0 mi
9:50 AM41 °FLight fog.9 mph100%30.15 "Hg4 mi
9:20 AM39 °FLight fog.12 mph100%30.12 "Hg4 mi
8:50 AM34 °FFog.8 mph100%30.12 "Hg0 mi
8:20 AM32 °FFog.8 mph100%30.12 "Hg0 mi
7:50 AM34 °FFog.8 mph100%30.12 "Hg1 mi
4:50 PM
Nov 22
37 °FSleet. Overcast.9 mph100%30.12 "Hg1 mi
4:20 PM39 °FScattered clouds.9 mph100%30.09 "Hg0 mi
3:50 PM39 °FSleet. Cloudy.7 mph100%30.09 "Hg1 mi
3:20 PM39 °FSleet. Cloudy.9 mph100%30.09 "Hg1 mi
2:50 PM41 °FScattered clouds.9 mph100%30.09 "Hg1 mi
2:20 PM41 °FFog.9 mph100%30.09 "Hg1 mi
1:50 PM43 °FBroken clouds.9 mph100%30.09 "Hg1 mi
1:20 PM43 °FFog.13 mph100%30.09 "Hg0 mi
Weather by CustomWeather, © 2014

See weather overviewHow to use our weather pages